This demonstration page uses our WeatherBlox Daily Observations layout. Learn more.

Left ArrowRight Arrow

40.92945, -100.16068

Hourly Observations for February 8, 2016

Temp ( °F °C ) Dew Point ( °F °C ) Humidity (%) Winds ( mph kmh ) Pressure ( in mb ) Visibility ( mi km ) Precip ( " mm )
12:15 am 00:15 Clear 27 -3 15 -9.2 63 63 WNW 14 22 30.33 1027 10 16.0934 N/A
12:35 am 00:35 Clear 26 -3.2 15 -9.3 63 63 WNW 14 22 30.33 1027 10 16.0934 N/A
12:55 am 00:55 Clear 26 -3.5 15 -9.3 65 65 WNW 15 24 30.33 1027 10 16.0934 N/A
1:15 am 01:15 Clear 25 -3.7 15 -9.5 64 64 WNW 13 20 30.36 1028 10 16.0934 N/A
1:35 am 01:35 Clear 28 -2.3 15 -9.5 58 58 NW 20 31 30.3 1026 10 16.0934 N/A
1:55 am 01:55 Clear 29 -1.8 15 -9.4 57 57 NW 20 31 30.3 1026 10 16.0934 N/A
2:15 am 02:15 Clear 29 -1.6 15 -9.4 56 56 NW 26 43 30.3 1026 10 16.0934 N/A
2:35 am 02:35 Clear 29 -1.5 15 -9.4 55 55 NW 29 46 30.3 1026 10 16.0934 N/A
2:55 am 02:55 Clear 29 -1.6 15 -9.5 55 55 NW 26 43 30.3 1026 10 16.0934 N/A
3:15 am 03:15 Clear 29 -1.5 15 -9.4 55 55 NW 26 43 30.3 1026 10 16.0934 N/A
3:35 am 03:35 Clear 29 -1.7 16 -9.1 57 57 NW 25 41 30.3 1026 10 16.0934 N/A
3:55 am 03:55 Clear 29 -1.7 15 -9.2 57 57 NW 25 41 30.3 1026 10 16.0934 N/A
4:15 am 04:15 Clear 29 -1.8 16 -9.1 58 58 NW 24 39 30.3 1026 10 16.0934 N/A
4:35 am 04:35 Clear 28 -2 16 -9.1 59 59 NW 21 33 30.3 1026 10 16.0934 N/A
4:55 am 04:55 Clear 28 -2.2 15 -9.2 59 59 NW 22 35 30.33 1027 10 16.0934 N/A
5:15 am 05:15 Clear 28 -2.4 15 -9.2 60 60 NW 20 31 30.33 1027 10 16.0934 N/A
5:35 am 05:35 Clear 28 -2.4 15 -9.2 60 60 NW 23 37 30.33 1027 10 16.0934 N/A
5:55 am 05:55 Clear 28 -2.5 15 -9.2 60 60 NW 22 35 30.33 1027 10 16.0934 N/A
6:15 am 06:15 Clear 28 -2.5 16 -9.1 61 61 NW 24 39 30.33 1027 10 16.0934 N/A
6:35 am 06:35 Clear 28 -2.5 16 -9.1 61 61 NW 25 41 30.33 1027 10 16.0934 N/A
6:55 am 06:55 Clear 28 -2.5 15 -9.2 60 60 NW 24 39 30.33 1027 10 16.0934 N/A
7:15 am 07:15 Clear 27 -2.6 15 -9.2 61 61 NW 20 31 30.36 1028 10 16.0934 N/A
7:35 am 07:35 Clear 27 -2.6 15 -9.3 60 60 NW 23 37 30.36 1028 10 16.0934 N/A
7:55 am 07:55 Sunny 27 -2.7 15 -9.4 60 60 NW 23 37 30.36 1028 10 16.0934 N/A
8:15 am 08:15 Sunny 27 -2.7 15 -9.3 61 61 NW 23 37 30.36 1028 10 16.0934 N/A
8:35 am 08:35 Sunny 27 -2.6 15 -9.3 60 60 NW 26 43 30.36 1028 10 16.0934 N/A
8:55 am 08:55 Sunny 28 -2.5 15 -9.2 60 60 NW 24 39 30.39 1029 10 16.0934 N/A
9:15 am 09:15 Sunny 28 -2.2 16 -8.9 60 60 NW 25 41 30.39 1029 10 16.0934 N/A
9:35 am 09:35 Sunny 29 -1.8 16 -8.8 59 59 NW 25 41 30.39 1029 10 16.0934 N/A
9:55 am 09:55 Sunny 29 -1.5 17 -8.5 59 59 NW 24 39 30.39 1029 10 16.0934 N/A
10:15 am 10:15 Sunny 30 -1 17 -8.4 58 58 NW 25 41 30.42 1030 10 16.0934 N/A
10:35 am 10:35 Sunny 31 -0.7 17 -8.4 56 56 NNW 28 44 30.42 1030 10 16.0934 N/A
10:55 am 10:55 Sunny 31 -0.5 17 -8.2 56 56 NNW 26 43 30.42 1030 10 16.0934 N/A
11:15 am 11:15 Sunny 32 -0.2 17 -8.3 55 55 NNW 30 48 30.42 1030 10 16.0934 N/A
11:35 am 11:35 Sunny 32 undefined 18 -8 55 55 NW 28 44 30.42 1030 10 16.0934 N/A
11:55 am 11:55 Sunny 32 0.2 17 -8.3 53 53 NW 30 48 30.42 1030 10 16.0934 N/A
12:15 pm 12:15 Sunny 33 0.5 18 -8 53 53 NNW 22 35 30.36 1028 10 16.0934 N/A
12:35 pm 12:35 Sunny 33 0.7 17 -8.1 52 52 NNW 28 44 30.36 1028 10 16.0934 N/A
12:55 pm 12:55 Sunny 34 1 17 -8.4 50 50 NNW 25 41 30.36 1028 10 16.0934 N/A
1:15 pm 13:15 Sunny 34 1.1 18 -7.9 51 51 NNW 26 43 30.33 1027 10 16.0934 N/A
1:35 pm 13:35 Sunny 35 1.5 18 -7.9 50 50 NNW 26 43 30.33 1027 10 16.0934 N/A
1:55 pm 13:55 Sunny 35 1.7 17 -8.3 48 48 NNW 24 39 30.33 1027 10 16.0934 N/A
2:15 pm 14:15 Sunny 35 1.7 17 -8.6 47 47 NNW 29 46 30.33 1027 10 16.0934 N/A
2:35 pm 14:35 Sunny 36 2 17 -8.2 47 47 NNW 26 43 30.3 1026 10 16.0934 N/A
2:55 pm 14:55 Sunny 36 2.1 17 -8.5 46 46 NNW 25 41 30.3 1026 10 16.0934 N/A
3:15 pm 15:15 Sunny 36 2.3 15 -9.2 43 43 NNW 30 48 30.33 1027 10 16.0934 N/A
3:35 pm 15:35 Sunny 36 2.3 15 -9.4 42 42 NNW 29 46 30.33 1027 10 16.0934 N/A
3:55 pm 15:55 Sunny 37 2.5 16 -9.1 42 42 NNW 24 39 30.27 1025 10 16.0934 N/A
4:15 pm 16:15 Sunny 37 2.5 17 -8.2 46 46 NNW 20 31 30.27 1025 10 16.0934 N/A
4:35 pm 16:35 Sunny 36 2 17 -8.6 46 46 NNW 18 30 30.3 1026 10 16.0934 N/A
4:55 pm 16:55 Sunny 36 2.2 16 -8.7 45 45 NNW 16 26 30.3 1026 10 16.0934 N/A
5:15 pm 17:15 Sunny 36 2.1 17 -8.5 46 46 NNW 15 24 30.3 1026 10 16.0934 N/A
5:35 pm 17:35 Sunny 34 1.3 19 -7.5 52 52 NW 10 17 30.3 1026 10 16.0934 N/A
5:55 pm 17:55 Sunny 33 0.6 17 -8.5 51 51 NW 10 17 30.3 1026 10 16.0934 N/A
6:15 pm 18:15 Clear 32 -0.1 17 -8.6 53 53 NW 10 17 30.3 1026 10 16.0934 N/A
6:35 pm 18:35 Clear 29 -1.8 17 -8.5 61 61 NW 8 13 30.33 1027 10 16.0934 N/A
6:55 pm 18:55 Clear 27 -2.6 17 -8.3 65 65 NW 9 15 30.33 1027 10 16.0934 N/A
7:15 pm 19:15 Clear 26 -3.4 17 -8.3 69 69 WNW 9 15 30.33 1027 10 16.0934 N/A
7:35 pm 19:35 Partly Cloudy 26 -3.5 17 -8.6 68 68 NW 10 17 30.33 1027 10 16.0934 N/A
7:55 pm 19:55 Partly Cloudy 24 -4.4 16 -9 71 71 WNW 10 17 30.36 1028 10 16.0934 N/A
8:15 pm 20:15 Clear 25 -4.1 16 -9 69 69 WNW 12 19 30.36 1028 10 16.0934 N/A
8:35 pm 20:35 Clear 25 -3.8 16 -9 68 68 WNW 10 17 30.36 1028 10 16.0934 N/A
8:55 pm 20:55 Clear 25 -4 16 -8.8 70 70 WNW 12 19 30.36 1028 10 16.0934 N/A
9:15 pm 21:15 Clear 25 -4 17 -8.5 71 71 WNW 12 19 30.36 1028 10 16.0934 N/A
9:35 pm 21:35 Clear 25 -3.9 17 -8.6 70 70 WNW 12 19 30.36 1028 10 16.0934 N/A
9:55 pm 21:55 Clear 25 -4.1 17 -8.6 71 71 WNW 9 15 30.36 1028 10 16.0934 N/A
10:15 pm 22:15 Clear 25 -4 17 -8.5 71 71 WNW 8 13 30.36 1028 10 16.0934 N/A
10:35 pm 22:35 Partly Cloudy 26 -3.1 19 -7.5 72 72 NW 9 15 30.33 1027 10 16.0934 N/A
10:55 pm 22:55 Mostly Cloudy 26 -3.5 18 -7.6 74 74 WNW 9 15 30.33 1027 10 16.0934 N/A
11:15 pm 23:15 Partly Cloudy 25 -3.8 18 -7.6 75 75 WNW 9 15 30.33 1027 10 16.0934 N/A
11:35 pm 23:35 Clear 24 -4.4 18 -7.8 77 77 WNW 12 19 30.33 1027 10 16.0934 N/A
11:55 pm 23:55 Clear 24 -4.2 18 -8 75 75 WNW 12 19 30.33 1027 10 16.0934 N/A

Powered by AerisWeather